Regional Weather Roundup
Issued by NWS Cleveland, OH

Home | Current Version | Previous Version | Text Only | Print | Product List | Glossary Off
Versions: 1 2 3 4 5 6 7 8 9 10 11 12 13 14 15 16 17 18 19 20 21 22 23 24 25 26 27 28 29 30 31 32 33 34 35 36 37 38 39 40 41 42 43 44 45 46 47 48 49 50

000
ASUS41 KCLE 251110
RWRCLE
OHIO REGIONAL WEATHER ROUNDUP
NATIONAL WEATHER SERVICE WILMINGTON, OH
600 AM EST THU DEC 25 2014

NOTE: "FAIR" INDICATES FEW OR NO CLOUDS BELOW 12,000 FEET WITH NO
SIGNIFICANT WEATHER AND/OR OBSTRUCTIONS TO VISIBILITY.

OHZ001>008-015>018-024>027-034-035-043-044-251200-
   NORTHWEST OHIO

CITY           SKY/WX    TMP DP  RH WIND       PRES   REMARKS
DEFIANCE       LGT RAIN  37  33  85 W13G18    29.79R
FINDLAY        CLOUDY    38  33  82 W17G26    29.78R
TOLEDO EXPRESS CLOUDY    36  34  92 W22G28    29.75R
TOLEDO METCALF CLOUDY    38  33  82 W15       29.76R
LIMA           CLOUDY    38  33  82 W23G30    29.80R
$$

OHZ009>014-019>023-028>033-038-089-251200-
   NORTHEAST OHIO

CITY           SKY/WX    TMP DP  RH WIND       PRES   REMARKS
CLE-HOPKINS    CLOUDY    38  32  79 W26       29.76R
CLE-LAKEFRONT  CLOUDY    40  33  76 SW22      29.72R
CUY CO. ARPT   NOT AVBL
LORAIN-ELYRIA  CLOUDY    37  32  82 W21G29    29.75R
ASHTABULA      CLOUDY    38  34  85 W13G21    29.71R
AKRON-CANTON   CLOUDY    38  33  82 W13       29.74R
WOOSTER        CLOUDY    37  33  85 W17G29    29.77R
MANSFIELD      CLOUDY    36  32  85 W16G30    29.76R
YOUNGSTOWN     LGT RAIN  37  33  85 SW16      29.71R
$$

OHZ042-051>053-060>062-070>072-077>081-251200-
  SOUTHWEST OHIO

CITY           SKY/WX    TMP DP  RH WIND       PRES   REMARKS
CINC-COVINGTON DRIZZLE   38  31  76 W10       29.91R
CINC-LUNKEN    CLOUDY    38  34  85 SW10      29.93R
HAMILTON       CLOUDY    39  34  82 W8        29.92R
DAYTON         CLOUDY    37  33  85 W16G25    29.87R
WRIGHT-PAT AFB CLOUDY    37  33  85 W16G23    29.87R
DAYTON GENERAL CLOUDY    37  34  89 W12       29.87R
WILMINGTON     LGT RAIN  37  32  82 W16       29.87R
$$

OHZ036-037-039>041-045>050-054>059-063>069-073>076-082>088-251200-
  CENTRAL AND SOUTHEAST OHIO

CITY           SKY/WX    TMP DP  RH WIND       PRES   REMARKS
COLUMBUS       CLOUDY    38  32  79 W14G22    29.84R
OSU AIRPORT    CLOUDY    38  32  79 W16G23    29.83R
BOLTON FIELD   CLOUDY    37  34  88 MISG      29.85R
RICKENBACK AFB CLOUDY    37  33  88 W15G22    29.86R
NEWARK         CLOUDY    39  33  79 W15       29.83R
MARION         CLOUDY    37  32  82 W16G25    29.80R
LANCASTER      CLOUDY    39  34  82 W12G22    29.85R
ZANESVILLE     LGT RAIN  38  33  82 W12G20    29.82R
NEW PHILLY     CLOUDY    40  33  76 W9G21     29.80R
$$



USA.gov is the U.S. government's official web portal to all federal, state and local government web resources and services.